This demonstration page uses our WeatherBlox Daily Observations layout. Learn more.

Left ArrowRight Arrow

34.74481, -87.66753

Hourly Observations for June 18, 2019

Temp ( °F °C ) Dew Point ( °F °C ) Humidity (%) Winds ( mph kmh ) Pressure ( in mb ) Visibility ( mi km ) Precip ( " mm )
12:53 am 00:53 Partly Cloudy 73 22.8 70 21.1 90 90 S 3 6 29.97 1015 10 16 0.00 0.00
1:53 am 01:53 Clear 72 22.2 70 21.1 94 94 ESE 3 6 29.96 1015 10 16 0.00 0.00
2:53 am 02:53 Mostly Cloudy 73 22.8 70 21.1 90 90 ESE 5 7 29.95 1014 10 16 0.00 0.00
3:53 am 03:53 Partly Cloudy with Light Rain 73 22.8 70 21.1 90 90 Calm 29.94 1014 10 16 0.01 0.25
4:53 am 04:53 Partly Cloudy with Light Rain 73 22.8 70 21.1 90 90 Calm 29.94 1014 10 16 0.03 0.76
5:53 am 05:53 Cloudy with Rain 73 22.8 71 21.7 94 94 Calm 29.96 1015 10 16 0.07 1.78
6:53 am 06:53 Cloudy with Light Rain 73 22.8 71 21.7 94 94 Calm 29.96 1015 10 16 0.17 4.32
7:40 am 07:40 Cloudy with Rain 73 22.8 71 21.7 94 94 SW 6 9 29.98 1015 10 16 0.07 1.78
7:53 am 07:53 Mostly Cloudy with Rain 73 22.8 71 21.7 94 94 WSW 3 6 29.98 1015 10 16 0.10 2.54
8:42 am 08:42 Cloudy with Light Rain 74 23.3 71 21.7 91 91 SE 3 6 29.96 1015 10 16 0.05 1.27
8:53 am 08:53 Mostly Cloudy 74 23.3 71 21.7 91 91 SSE 5 7 29.96 1015 10 16 0.05 1.27
9:53 am 09:53 Mostly Cloudy 74 23.3 71 21.7 91 91 Calm 29.96 1015 10 16 0.01 0.25
10:20 am 10:20 Mostly Cloudy 76 24.4 72 22.2 88 88 SSE 5 7 29.96 1015 10 16 0.00 0.00
10:32 am 10:32 Mostly Cloudy 77 25 73 22.8 88 88 SE 5 7 29.96 1014 10 16 0.00 0.00
10:53 am 10:53 Mostly Cloudy 78 25.6 73 22.8 85 85 SSE 5 7 29.96 1015 10 16 0.00 0.00
11:15 am 11:15 Mostly Cloudy 79 26.1 72 22.2 79 79 S 6 9 29.96 1014 10 16 0.00 0.00
11:30 am 11:30 Mostly Cloudy 80 26.7 73 22.8 79 79 S 5 7 29.94 1014 10 16 0.00 0.00
11:53 am 11:53 Cloudy with Heavy Rain 76 24.4 71 21.7 85 85 SSW 6 9 29.95 1014 10 16 0.19 4.83
12:53 pm 12:53 Mostly Cloudy 81 27.2 73 22.8 77 77 VRB 7 11 29.92 1013 10 16 0.01 0.25
1:53 pm 13:53 undefined 85 29.4 71 21.7 63 63 WSW 6 9 29.89 1012 10 16 0.00 0.00
2:53 pm 14:53 Mostly Cloudy 82 27.8 72 22.2 72 72 NNW 3 6 29.87 1012 10 16 0.01 0.25
3:53 pm 15:53 Cloudy 84 28.9 70 21.1 63 63 S 3 6 29.85 1011 10 16 0.00 0.00
4:53 pm 16:53 Cloudy 80 26.7 74 23.3 82 82 NE 6 9 29.83 1010 10 16 0.01 0.25
5:37 pm 17:37 Cloudy with Nearby Thunderstorms 78 25.6 74 23.3 87 87 VRB 7 11 29.85 1011 10 16 0.00 0.00
5:53 pm 17:53 Cloudy with Nearby Thunderstorms 75 23.9 72 22.2 90 90 WNW 14 22 29.85 1011 10 16 0.05 1.27
6:04 pm 18:04 Cloudy with Nearby Thunderstorms 75 23.9 72 22.2 90 90 NW 7 11 29.84 1011 10 16 0.00 0.03
6:18 pm 18:18 Cloudy 75 23.9 72 22.2 90 90 N 7 11 29.84 1011 10 16 0.00 0.03
6:28 pm 18:28 Cloudy with Nearby Thunderstorms 75 23.9 72 22.2 90 90 Calm 29.84 1011 10 16 0.00 0.03
6:45 pm 18:45 Cloudy 76 24.4 72 22.2 88 88 E 3 6 29.84 1010 10 16 0.00 0.03
6:53 pm 18:53 Cloudy 76 24.4 72 22.2 88 88 ESE 6 9 29.84 1011 10 16 0.00 0.03
7:53 pm 19:53 Cloudy 76 24.4 72 22.2 88 88 E 3 6 29.84 1011 10 16 0.00 0.00
8:53 pm 20:53 Cloudy 75 23.9 72 22.2 90 90 S 6 9 29.85 1011 10 16 0.00 0.00
9:53 pm 21:53 Cloudy with Light Rain 75 23.9 72 22.2 90 90 SSE 5 7 29.86 1011 10 16 0.00 0.03
10:53 pm 22:53 Mostly Cloudy 75 23.9 72 22.2 90 90 WSW 5 7 29.86 1011 10 16 0.00 0.03
11:53 pm 23:53 Mostly Cloudy 75 23.9 72 22.2 90 90 Calm 29.86 1011 10 16 0.00 0.00

Powered by AerisWeather